Weather Roundup
Issued by NWS Chicago, IL

Home | Current Version | Previous Version | Text Only | Print | Product List | Glossary Off
Versions: 1 2 3 4 5 6 7 8 9 10 11 12 13 14 15 16 17 18 19 20 21 22 23 24 25 26 27 28 29 30 31 32 33 34 35 36 37 38 39 40 41 42 43 44 45 46 47 48 49 50

000
NZUS59 KLOT 041900
HRRLOT

CHICAGO AREA WEATHER ROUNDUP
NATIONAL WEATHER SERVICE CHICAGO/ROMEOVILLE IL
200 PM CDT FRI SEP 04 2015

NOTE: "FAIR" INDICATES FEW OR NO CLOUDS BELOW 12,000 FEET WITH NO
SIGNIFICANT WEATHER AND/OR OBSTRUCTIONS TO VISIBILITY.

* THESE STATIONS ARE NOT UNDER NWS QUALITY CONTROL. THEY ALSO MAY NOT
  REPORT WEATHER SUCH AS PRECIPITATION OR FOG.

ILZ005-006-012>014-019>023-042000-
NORTHEAST ILLINOIS

CITY           SKY/WX    TMP DP  RH WIND       PRES   REMARKS
OHARE          MOSUNNY   84  69  60 E6        30.00F HX  88
MIDWAY         MOSUNNY   85  68  56 E7        30.00F HX  88
AURORA         SUNNY     86  73  65 VRB5      30.01F HX  93
WAUKEGAN       NOT AVBL
DUPAGE AIRPORT MOSUNNY   85  70  60 CALM      30.00F HX  89
WHEELING       MOSUNNY   80  67  64 NE7       30.03F HX  82
NORTHERLY IS     N/A     73  67  81 N9          N/A
$$

WIZ051-052-058>065-066-070>072-042000-
SOUTHEAST WISCONSIN

CITY           SKY/WX    TMP DP  RH WIND       PRES   REMARKS
MILWAUKEE      MOSUNNY   76  66  71 NE10      30.03S
KENOSHA*       MOSUNNY   78  66  66 E8        30.03F HX  80
RACINE*        SUNNY     77  65  66 NE9       30.04F
WAUKESHA       MOSUNNY   79  64  61 E3        30.04F HX  81
$$

INZ001>003-010>013-019-020-042000-
NORTHWEST INDIANA

CITY           SKY/WX    TMP DP  RH WIND       PRES   REMARKS
GARY*          PTSUNNY   79  68  69 N8        30.02F HX  81
MICHIGAN CITY* NOT AVBL
RENSSELAER*    NOT AVBL
$$

LMZ740>746-042000-
SOUTHERN LAKE MICHIGAN

STATION/POSITION TIME  SKY/WX   TEMP WIND        PRES    VSBY
                                AIR  DIR/SP/G
                 (UTC)          (F)  (DEG/KT/KT) (MB)    (MI)
HARRISON CRIB    1800            69  360/  9/ 10   N/A
BURNHAM HARBOR   1800            73  360/  8/ 10   N/A
CALUMET HARBOR   1800            73   20/  8/ 11   N/A
BURNS HARBOR     1800            72   30/  7/ 11 1017.6S
MICHIGAN CITY    1800            71  360/  8/  9   N/A
$$

ABBREVIATIONS USED IN REMARKS
   TC - TEMPERATURE IN CELSIUS
  WCI - WIND CHILL INDEX
   HX - HEAT INDEX
  VSB - VISIBILITY
$$



USA.gov is the U.S. government's official web portal to all federal, state and local government web resources and services.